Fort Lewis, WA

6:22 AM PDT on August 22, 2017 (GMT -0700)
Gray Army Air Field

Weather History for KGRF - December, 2012

Change the Weather History Date:

Tuesday, December 11, 2012

  Actual Average Record
Temperature  
Mean Temperature 40 °F -  
Max Temperature 46 °F 46 °F 58 °F (2014)
Min Temperature 35 °F 34 °F 26 °F (2005)
Degree Days  
Heating Degree Days 24    
Moisture  
Dew Point 39 °F    
Average Humidity 94    
Maximum Humidity 100    
Minimum Humidity 76    
Precipitation  
Precipitation 0.11 in - - ()
Sea Level Pressure  
Sea Level Pressure 29.84 in    
Wind  
Wind Speed 6 mph (SSE)    
Max Wind Speed 18 mph    
Max Gust Speed 28 mph    
Visibility 7 miles    
Events Fog , Rain    
Averages and records for this station are not official NWS values.
T = Trace of Precipitation, MM = Missing Value Source: NWS Daily Summary

Daily Weather History Graph

Daily Weather History Graph

Search for Another Location

Airport or City:

Trip Planner

Search our weather history database for the weather conditions in past years. The results will help you decide how hot, cold, wet, or windy it might be!

Date:

Astronomy

Dec. 11, 2012 Rise Set
Actual Time 7:46 AM PST 4:20 PM PST
Civil Twilight 7:11 AM PST 4:56 PM PST
Nautical Twilight 6:32 AM PST 5:34 PM PST
Astronomical Twilight 5:55 AM PST 6:12 PM PST
Moon 5:44 AM PST (12/11) 3:07 PM PST (12/11)
Length of Visible Light 9h 44m
Length of Day
8h 33m
Waning Crescent, 4% of the Moon is Illuminated
Dec 11
Waning Crescent
Dec 13
New
Dec 19
First Quarter
Dec 28
Full
Jan 4
Last Quarter

Hourly Weather History & Observations

Time (PST) Temp. Windchill Dew Point Humidity Pressure Visibility Wind Dir Wind Speed Gust Speed Precip Events Conditions
12:03 AM 37.4 °F 34.9 °F 37.4 °F 100% 30.11 in 1.0 mi SSE 3.5 mph - N/A   Mist
12:05 AM 37.4 °F - 35.6 °F 93% 30.10 in 0.8 mi SSE 2.3 mph - N/A   Mist
12:10 AM 37.4 °F 34.9 °F 35.6 °F 93% 30.10 in 1.0 mi SE 3.5 mph - N/A   Mist
12:15 AM 37.4 °F 33.8 °F 35.6 °F 93% 30.09 in 0.8 mi SE 4.6 mph - N/A   Mist
12:20 AM 35.6 °F 31.7 °F 35.6 °F 100% 30.09 in 0.5 mi SSE 4.6 mph - N/A Fog Fog
12:30 AM 35.6 °F 30.7 °F 35.6 °F 100% 30.07 in 0.2 mi SE 5.8 mph - N/A Fog Fog
12:35 AM 35.6 °F 30.7 °F 35.6 °F 100% 30.07 in 0.2 mi SE 5.8 mph - N/A Fog Fog
12:40 AM 35.6 °F 32.8 °F 35.6 °F 100% 30.07 in 0.5 mi ESE 3.5 mph - N/A Fog Fog
12:45 AM 35.6 °F 31.7 °F 35.6 °F 100% 30.06 in 1.2 mi ESE 4.6 mph - N/A   Mostly Cloudy
12:50 AM 37.4 °F 34.9 °F 37.4 °F 100% 30.05 in 5.0 mi ESE 3.5 mph - N/A   Mostly Cloudy
12:55 AM 37.4 °F 34.9 °F 37.4 °F 100% 30.05 in 10.0 mi SE 3.5 mph - N/A   Overcast
12:58 AM 38.1 °F 33.7 °F 37.9 °F 99% 30.06 in 10.0 mi SE 5.8 mph - N/A   Overcast
1:08 AM 37.4 °F 32.1 °F 37.4 °F 100% 30.03 in 9.0 mi SE 6.9 mph - N/A   Overcast
1:43 AM 37.4 °F 33.8 °F 37.4 °F 100% 30.01 in 1.8 mi SE 4.6 mph - N/A   Overcast
1:48 AM 37.4 °F 33.8 °F 37.4 °F 100% 30.01 in 1.0 mi SE 4.6 mph - N/A   Overcast
1:53 AM 39.2 °F 35.9 °F 37.4 °F 93% 30.00 in 0.8 mi SSE 4.6 mph - N/A   Overcast
1:58 AM 37.4 °F 34.9 °F 37.4 °F 100% 30.03 in 0.5 mi South 3.5 mph - N/A Fog Fog
2:28 AM 37.4 °F - 37.4 °F 100% 29.98 in 0.5 mi East 2.3 mph - N/A Fog Fog
2:33 AM 37.4 °F - 37.4 °F 100% 29.98 in 0.8 mi ESE 2.3 mph - N/A   Scattered Clouds
2:38 AM 37.4 °F - 37.4 °F 100% 29.98 in 1.5 mi SE 1.2 mph - N/A   Mostly Cloudy
2:43 AM 37.4 °F - 37.4 °F 100% 29.97 in 1.5 mi SSE 2.3 mph - N/A   Mostly Cloudy
2:48 AM 37.4 °F - 37.4 °F 100% 29.96 in 1.2 mi SE 2.3 mph - N/A   Mostly Cloudy
2:58 AM 37.4 °F - 37.2 °F 99% 29.97 in 1.5 mi SE 2.3 mph - N/A   Overcast
3:08 AM 35.6 °F 32.8 °F 35.6 °F 100% 29.94 in 2.5 mi SE 3.5 mph - N/A   Mostly Cloudy
3:13 AM 35.6 °F 32.8 °F 35.6 °F 100% 29.95 in 4.0 mi SSE 3.5 mph - N/A   Mostly Cloudy
3:18 AM 35.6 °F 32.8 °F 35.6 °F 100% 29.95 in 5.0 mi SSE 3.5 mph - N/A   Overcast
3:48 AM 39.2 °F 32.0 °F 39.2 °F 100% 29.94 in 10.0 mi SW 11.5 mph - N/A   Mostly Cloudy
3:58 AM 40.3 °F 33.0 °F 39.9 °F 99% 29.96 in 10.0 mi SW 12.7 mph - N/A   Mostly Cloudy
4:08 AM 41.0 °F 34.7 °F 41.0 °F 100% 29.94 in 10.0 mi SW 10.4 mph - N/A   Mostly Cloudy
4:13 AM 41.0 °F 35.2 °F 41.0 °F 100% 29.94 in 10.0 mi SSW 9.2 mph - N/A   Overcast
4:18 AM 41.0 °F 35.2 °F 41.0 °F 100% 29.93 in 10.0 mi SW 9.2 mph - N/A   Overcast
4:28 AM 41.0 °F 34.3 °F 41.0 °F 100% 29.93 in 10.0 mi South 11.5 mph - N/A   Overcast
4:33 AM 41.0 °F 35.2 °F 41.0 °F 100% 29.92 in 10.0 mi South 9.2 mph - N/A   Overcast
4:53 AM 41.0 °F 35.8 °F 41.0 °F 100% 29.90 in 10.0 mi South 8.1 mph - N/A   Overcast
4:58 AM 41.2 °F 36.6 °F 40.8 °F 99% 29.92 in 10.0 mi SSE 6.9 mph - N/A   Overcast
5:03 AM 41.0 °F 35.8 °F 41.0 °F 100% 29.89 in 10.0 mi SE 8.1 mph - N/A   Overcast
5:08 AM 41.0 °F 35.2 °F 41.0 °F 100% 29.89 in 10.0 mi SE 9.2 mph - N/A   Overcast
5:13 AM 41.0 °F 35.8 °F 41.0 °F 100% 29.88 in 10.0 mi SE 8.1 mph - N/A   Overcast
5:58 AM 41.2 °F 38.2 °F 40.6 °F 98% 29.89 in 10.0 mi South 4.6 mph - N/A   Overcast
6:38 AM 41.0 °F 37.1 °F 41.0 °F 100% 29.85 in 10.0 mi SE 5.8 mph - N/A   Overcast
6:58 AM 40.8 °F 36.2 °F 40.6 °F 99% 29.85 in 10.0 mi ESE 6.9 mph - N/A   Overcast
7:58 AM 41.5 °F 36.4 °F 40.5 °F 96% 29.79 in 10.0 mi SE 8.1 mph - N/A   Scattered Clouds
8:58 AM 41.5 °F 37.8 °F 40.5 °F 96% 29.77 in 10.0 mi SE 5.8 mph - N/A   Overcast
9:58 AM 44.1 °F 38.6 °F 40.8 °F 88% 29.74 in 10.0 mi SSE 10.4 mph - N/A   Mostly Cloudy
10:58 AM 44.8 °F 39.4 °F 40.1 °F 84% 29.73 in 10.0 mi South 10.4 mph - N/A   Overcast
11:58 AM 45.9 °F 38.5 °F 40.1 °F 80% 29.66 in 10.0 mi SSE 18.4 mph - N/A   Overcast
12:58 PM 46.4 °F 41.1 °F 39.7 °F 78% 29.64 in 10.0 mi SSE 11.5 mph - N/A   Overcast
1:07 PM 46.4 °F 41.5 °F 39.2 °F 76% 29.61 in 10.0 mi SSE 10.4 mph - N/A   Light Drizzle
1:32 PM 44.6 °F 38.8 °F 41.0 °F 87% 29.60 in 9.0 mi SSE 11.5 mph - N/A   Light Drizzle
1:37 PM 44.6 °F 38.4 °F 41.0 °F 87% 29.60 in 10.0 mi SSE 12.7 mph - N/A Rain Light Rain
1:58 PM 44.2 °F 36.4 °F 40.6 °F 87% 29.60 in 10.0 mi SSE 18.4 mph 24.2 mph 0.07 in Rain Light Rain
2:03 PM 44.6 °F 37.8 °F 41.0 °F 87% 29.58 in 10.0 mi SSE 15.0 mph 24.2 mph N/A Rain Light Rain
2:58 PM 43.2 °F 35.9 °F 40.8 °F 91% 29.57 in 10.0 mi SE 15.0 mph - 0.04 in   Scattered Clouds
3:33 PM 42.8 °F 37.0 °F 39.2 °F 87% 29.55 in 10.0 mi SSE 10.4 mph - N/A   Overcast
3:38 PM 42.8 °F 36.6 °F 39.2 °F 87% 29.54 in 10.0 mi SSE 11.5 mph - N/A   Overcast
3:53 PM 42.8 °F 37.0 °F 39.2 °F 87% 29.55 in 10.0 mi SSE 10.4 mph - N/A   Overcast
3:58 PM 42.8 °F 37.0 °F 39.6 °F 88% 29.57 in 10.0 mi SSE 10.4 mph - 0.00 in   Overcast
4:03 PM 42.8 °F 37.0 °F 39.2 °F 87% 29.55 in 10.0 mi SSE 10.4 mph - N/A   Overcast
4:58 PM 43.0 °F 35.4 °F 38.8 °F 85% 29.58 in 10.0 mi South 16.1 mph 23.0 mph N/A   Overcast
5:58 PM 42.8 °F 36.2 °F 38.3 °F 84% 29.59 in 10.0 mi South 12.7 mph - N/A   Overcast
6:58 PM 42.4 °F 35.7 °F 38.7 °F 86% 29.58 in 10.0 mi South 12.7 mph 27.6 mph N/A   Mostly Cloudy
7:58 PM 42.8 °F 35.8 °F 39.6 °F 88% 29.59 in 10.0 mi South 13.8 mph - N/A   Overcast
8:58 PM 41.7 °F 36.1 °F 39.6 °F 92% 29.61 in 10.0 mi SSE 9.2 mph - N/A   Mostly Cloudy
9:38 PM 42.8 °F 38.6 °F 39.2 °F 87% 29.59 in 10.0 mi South 6.9 mph - N/A   Overcast
9:58 PM 42.3 °F 37.3 °F 39.9 °F 91% 29.61 in 10.0 mi South 8.1 mph - N/A   Overcast
10:53 PM 42.8 °F 37.0 °F 39.2 °F 87% 29.61 in 10.0 mi SSE 10.4 mph - N/A   Overcast
10:58 PM 42.1 °F 36.1 °F 39.9 °F 92% 29.63 in 10.0 mi SSE 10.4 mph - N/A   Overcast
11:58 PM 41.2 °F 35.5 °F 39.4 °F 93% 29.63 in 10.0 mi SSE 9.2 mph - N/A   Partly Cloudy